Russell, KS

3:03 PM CST on December 13, 2017 (GMT -0600)
Russell Municipal

Weather History for KRSL - March, 2013

Change the Weather History Date:

Friday, March 29, 2013

  Actual Average Record
Temperature  
Mean Temperature 55 °F -  
Max Temperature 73 °F 56 °F 88 °F (1986)
Min Temperature 37 °F 35 °F 11 °F (1987)
Degree Days  
Heating Degree Days 10    
Growing Degree Days 5 (Base 50)    
Moisture  
Dew Point 42 °F    
Average Humidity 64    
Maximum Humidity 86    
Minimum Humidity 35    
Precipitation  
Precipitation 0.00 in - - ()
Sea Level Pressure  
Sea Level Pressure 30.08 in    
Wind  
Wind Speed 10 mph (ESE)    
Max Wind Speed 16 mph    
Max Gust Speed 23 mph    
Visibility 10 miles    
Events      
Averages and records for this station are not official NWS values.
T = Trace of Precipitation, MM = Missing Value Source: NWS Daily Summary

Daily Weather History Graph

Daily Weather History Graph

Search for Another Location

Airport or City:

Trip Planner

Search our weather history database for the weather conditions in past years. The results will help you decide how hot, cold, wet, or windy it might be!

Date:

Astronomy

Mar. 29, 2013 Rise Set
Actual Time 7:24 AM CDT 7:56 PM CDT
Civil Twilight 6:57 AM CDT 8:23 PM CDT
Nautical Twilight 6:25 AM CDT 8:54 PM CDT
Astronomical Twilight 5:53 AM CDT 9:27 PM CDT
Moon 10:56 PM CDT (3/29) 8:35 AM CDT (3/29)
Length of Visible Light 13h 25m
Length of Day
12h 32m
Waning Gibbous, 93% of the Moon is Illuminated
Mar 29
Waning Gibbous
Apr 2
Last Quarter
Apr 10
New
Apr 18
First Quarter
Apr 25
Full

Hourly Weather History & Observations

Time (CDT) Temp. Windchill Dew Point Humidity Pressure Visibility Wind Dir Wind Speed Gust Speed Precip Events Conditions
12:53 AM 43.0 °F 38.2 °F 34.0 °F 71% 30.14 in 10.0 mi NE 8.1 mph - N/A   Clear
1:53 AM 42.1 °F 36.6 °F 33.1 °F 70% 30.13 in 10.0 mi ENE 9.2 mph - N/A   Clear
2:53 AM 39.9 °F 33.9 °F 33.1 °F 77% 30.13 in 10.0 mi ENE 9.2 mph - N/A   Clear
3:53 AM 39.0 °F 32.3 °F 33.1 °F 79% 30.12 in 10.0 mi East 10.4 mph - N/A   Clear
4:53 AM 39.0 °F 34.8 °F 34.0 °F 82% 30.11 in 10.0 mi East 5.8 mph - N/A   Clear
5:53 AM 39.9 °F 35.1 °F 35.1 °F 83% 30.11 in 10.0 mi East 6.9 mph - N/A   Clear
6:53 AM 37.9 °F 32.7 °F 34.0 °F 86% 30.13 in 10.0 mi East 6.9 mph - N/A   Clear
7:53 AM 39.0 °F - 35.1 °F 86% 30.15 in 7.0 mi North - - N/A   Clear
8:53 AM 46.0 °F 43.1 °F 39.0 °F 76% 30.15 in 8.0 mi East 5.8 mph - N/A   Clear
9:53 AM 52.0 °F - 43.0 °F 71% 30.15 in 10.0 mi East 8.1 mph - N/A   Clear
10:53 AM 57.9 °F - 45.0 °F 62% 30.14 in 10.0 mi ESE 10.4 mph - N/A   Clear
11:53 AM 64.0 °F - 46.9 °F 54% 30.13 in 10.0 mi East 10.4 mph - N/A   Clear
12:53 PM 68.0 °F - 46.9 °F 47% 30.10 in 10.0 mi East 11.5 mph - N/A   Clear
1:53 PM 69.1 °F - 46.0 °F 44% 30.07 in 10.0 mi ESE 12.7 mph 19.6 mph N/A   Clear
2:53 PM 72.0 °F - 46.0 °F 40% 30.06 in 10.0 mi East 16.1 mph 23.0 mph N/A   Partly Cloudy
3:53 PM 73.0 °F - 44.1 °F 35% 30.03 in 10.0 mi SE 13.8 mph - N/A   Clear
4:53 PM 73.0 °F - 44.1 °F 35% 30.02 in 10.0 mi SSE 12.7 mph 20.7 mph N/A   Partly Cloudy
5:53 PM 71.1 °F - 46.9 °F 42% 30.01 in 10.0 mi SE 15.0 mph 20.7 mph N/A   Partly Cloudy
6:53 PM 68.0 °F - 46.9 °F 47% 30.01 in 10.0 mi North - - N/A   Clear
7:53 PM 64.9 °F - 50.0 °F 58% 29.99 in 10.0 mi SE 15.0 mph - N/A   Clear
8:53 PM 61.0 °F - 50.0 °F 67% 30.00 in 10.0 mi SSE 12.7 mph - N/A   Clear
9:53 PM 57.0 °F - 50.0 °F 77% 30.01 in 10.0 mi SSE 8.1 mph - N/A   Clear
10:53 PM 55.9 °F - 50.0 °F 80% 29.99 in 10.0 mi South 10.4 mph - N/A   Clear
11:53 PM 57.9 °F - 50.0 °F 75% 30.01 in 10.0 mi South 11.5 mph - N/A   Overcast